Weather in Cavalese

Italy     46°17′29″N   11°27′35″E
temp.,
°C
wind,
m/s
gust,
m/s
humid.,
%
clouds,
%
prec.,
mm/h
press.,
hPa
HPBL,
m
26 october, tue
tue2623:00+4ese1152100 0.0 102311
02:00+2ene114646 0.0 102310
05:00+1ene21435 0.0 102212
08:00+1ne21495 0.0 102212
11:00+8nnw113847 0.0 1020529
14:00+10wnw124066 0.0 10191351
17:00+8wnw115449 0.0 102071
20:00+3ene21683 0.0 102412
27 october, wed
wed2723:00+2ne21680 0.0 102613
02:00+1ene21740 0.0 102713
05:00+1ne11750 0.0 102711
08:00+1ne11720 0.0 102814
11:00+9w11451 0.0 1025528
14:00+11wsw12420 0.0 10241134
17:00+8wsw11600 0.0 102378
20:00+3ene11800 0.0 102612
28 october, thu
thu2823:00+3ene21790 0.0 102714
02:00+2e21765 0.0 102613
05:00+2ene21672 0.0 102512
08:00+2e21550 0.0 102513
11:00+10sw01343 0.0 1022349
14:00+13ssw123312 0.0 1020887
17:00+9s115567 0.0 102028
20:00+4e2265100 0.0 102218
29 october, fri
fri2923:00+4ese2157100 0.0 102216
02:00+3e216165 0.0 102216
05:00+3ese2168100 0.0 102013
08:00+3ese2170100 0.0 102015
11:00+9s134614 0.0 1018481
14:00+11s23375 0.0 10171088
17:00+8sse23565 0.0 1016268
20:00+2ese228813 0.0 102036
30 october, sat
sat3023:00+4se238199 0.0 1020152
02:00+2se1297100 0.3 1021121
05:00+3nw009899 0.1 1021140
08:00+3ne119776 0.1 1021106
11:00+7s127752 0.0 1020554
14:00+8ssw226590 0.0 10191020
17:00+7s2271100 0.0 1019536
20:00+3se2296100 0.0 102129